Theta_e
325 322 323 321 307 306 300 303 311 307 308 314 319 314 311 313 309 309 335 338 339 340 342 344 346 346 345 345 347 347 348 347 346 345 342 340 341 340 340 340 343 341 339 339 340 338 337 337 337
321 319 320 314 304 298 298 306 305 308 310 317 315 313 311 313 324 328 331 339 341 339 340 339 344 346 344 344 346 347 347 347 345 343 340 339 340 340 339 342 344 340 338 338 336 336 335 336 337
320 318 312 309 304 299 298 304 308 311 313 313 312 316 314 316 326 330 337 340 339 338 339 342 345 346 345 345 346 346 346 347 344 342 340 339 340 340 340 341 342 341 338 336 337 336 335 336 339
318 318 313 304 300 302 302 306 309 310 310 311 313 310 320 327 329 333 338 339 339 340 340 343 346 346 344 345 345 347 346 345 343 341 339 338 339 339 339 339 340 340 336 335 337 335 336 337 337
317 314 305 302 301 302 305 308 311 309 309 310 311 309 316 327 332 335 337 338 338 340 339 343 345 345 345 344 344 347 347 345 342 339 338 337 338 338 338 337 337 339 336 336 336 338 338 337 336
311 312 302 299 300 303 306 310 311 309 308 310 309 310 318 330 330 334 337 338 341 341 341 341 338 340 342 343 344 346 347 345 343 339 338 337 337 338 335 334 335 339 336 336 336 338 337 336 334
309 306 302 302 301 302 305 310 308 306 307 308 313 308 319 326 331 334 336 338 340 342 340 339 338 337 336 338 340 341 344 343 342 340 339 339 338 338 337 336 337 338 339 338 338 337 337 335 333
311 307 302 303 300 300 307 308 309 308 307 315 316 307 312 327 333 333 335 337 338 339 340 338 337 336 337 338 334 336 339 340 339 336 334 332 333 333 333 332 335 337 338 336 336 336 335 334 331
312 303 301 301 301 302 307 305 308 310 309 312 314 315 321 332 333 331 332 334 336 336 339 340 338 336 337 337 334 332 333 333 331 330 328 328 330 330 331 329 332 333 335 335 333 333 332 330 328
306 303 303 306 305 304 307 307 306 306 307 307 311 320 328 330 330 328 329 330 333 334 335 338 339 337 337 335 336 337 337 337 336 335 332 332 331 330 330 327 327 329 329 333 330 327 327 326 329
306 303 305 304 305 308 306 306 308 306 304 308 308 315 325 327 328 328 328 330 332 335 336 337 338 339 336 336 336 336 336 337 336 336 333 331 330 329 329 331 329 329 324 329 328 325 327 328 327
302 302 304 304 304 306 305 307 305 307 307 309 311 316 324 324 325 327 327 329 331 334 335 337 338 339 338 337 337 336 335 336 335 335 333 331 329 330 330 330 330 331 329 329 328 327 326 326 325
304 302 304 304 303 305 306 305 305 305 308 308 308 314 321 323 325 326 328 330 331 332 335 337 338 337 337 337 338 337 336 335 335 334 333 331 329 329 329 329 329 329 328 327 326 325 325 324 324
304 304 302 303 303 303 303 303 303 305 307 306 308 311 317 321 324 326 326 327 329 332 334 336 337 338 338 335 336 337 338 336 335 334 333 332 330 329 328 329 328 328 327 325 325 324 324 324 325
304 300 301 302 302 301 303 299 301 304 304 305 305 310 313 319 323 325 327 328 330 332 334 335 335 335 336 335 334 335 335 336 335 334 334 332 330 328 327 328 327 327 327 326 324 323 323 322 323
300 301 296 300 301 301 300 298 303 303 302 303 305 307 310 315 320 324 327 329 331 333 334 336 334 333 336 334 334 334 335 335 334 335 335 333 331 329 328 327 327 328 326 325 323 322 320 320 320
297 293 296 295 300 300 298 298 299 302 302 302 304 306 307 309 314 321 326 329 330 332 333 335 337 336 334 335 334 334 334 334 334 334 333 334 332 330 329 326 325 326 325 324 324 321 320 318 319
293 294 295 296 297 297 297 297 300 302 302 303 304 305 306 306 307 311 319 326 330 331 333 334 336 337 335 333 333 333 333 334 334 333 333 332 332 332 330 328 328 326 322 320 319 318 317 315 315
298 296 294 296 296 296 297 297 299 301 301 302 304 305 306 307 309 308 309 312 323 329 330 332 333 335 337 331 330 329 329 331 332 332 333 332 331 330 330 331 328 325 320 319 320 317 315 316 318
296 294 294 295 296 296 296 295 299 300 301 302 304 305 305 305 305 305 306 307 309 317 326 329 331 333 335 336 331 330 330 330 331 332 332 332 332 330 329 329 326 323 321 320 319 317 316 318 319
294 293 293 293 295 296 294 293 297 298 298 299 300 302 302 303 304 306 306 306 308 308 314 323 328 331 333 335 333 330 328 329 328 328 329 330 331 330 329 328 326 325 323 321 320 319 317 314 317
290 295 295 294 293 289 294 288 295 297 296 298 301 302 303 304 305 306 307 308 309 309 309 314 322 327 330 333 332 328 326 325 327 328 329 329 330 330 330 330 328 325 323 320 320 321 318 316 312
293 296 296 295 294 292 291 289 294 294 294 297 300 302 304 305 305 306 307 308 311 312 308 309 316 322 327 330 331 327 325 325 327 327 327 328 328 328 329 329 328 326 326 323 321 320 317 316 314
296 295 295 295 293 285 291 290 292 293 295 297 299 302 303 304 305 305 307 310 313 316 311 310 314 317 322 325 327 327 324 324 324 323 323 324 326 326 325 326 326 324 323 322 321 320 319 317 315
296 292 286 284 284 283 287 287 292 294 297 298 299 301 302 304 305 305 306 307 310 314 317 317 317 317 321 322 323 323 323 323 321 320 320 318 319 320 322 322 322 322 323 323 322 320 319 317 315
293 292 287 280 282 285 285 284 291 296 296 297 301 302 302 302 303 304 304 305 306 307 309 311 313 316 318 317 318 317 319 319 318 318 318 317 317 316 315 314 315 316 317 318 319 317 317 317 316
292 289 293 285 281 285 287 290 295 295 294 297 299 301 301 302 302 303 304 305 305 306 306 307 306 306 307 308 308 308 309 309 309 309 310 309 310 307 308 310 310 310 311 312 312 313 313 315 315
293 294 286 288 282 282 285 287 290 291 293 296 298 300 301 301 302 302 303 304 304 304 305 305 305 305 305 305 305 305 305 306 306 306 305 305 305 305 305 305 306 306 307 308 308 309 310 310 310
289 288 290 290 289 286 282 286 293 295 295 296 298 300 300 301 302 303 303 303 304 304 304 304 304 303 303 303 303 303 302 302 302 301 301 301 302 301 301 301 302 302 303 304 304 305 305 305 306
293 291 291 287 283 285 286 288 293 296 298 300 299 300 301 302 302 302 303 303 302 302 301 301 300 300 300 301 300 299 299 299 299 298 298 299 298 299 299 299 299 299 300 300 300 300 301 301 301
Wind_Speed
8 7 4 3 7 6 5 6 6 6 6 4 6 6 10 10 8 6 10 5 15 13 14 11 10 11 11 9 10 7 10 15 15 15 14 12 14 14 14 13 14 17 16 17 18 17 17 17 16
6 4 4 4 6 7 7 8 7 6 9 7 4 2 1 10 9 11 10 11 14 13 12 12 11 11 10 9 9 9 14 15 15 14 13 11 13 14 15 13 15 17 16 15 15 15 15 15 14
7 6 8 4 4 2 7 8 11 9 6 4 3 3 4 7 7 12 14 15 15 12 13 12 10 10 10 8 10 9 12 14 14 14 13 12 13 14 13 13 15 16 15 14 14 14 14 12 14
4 5 4 8 6 7 3 9 12 10 3 2 2 6 6 6 10 7 15 16 14 12 13 11 10 10 9 9 10 10 15 14 13 14 12 12 13 14 14 11 14 15 13 12 13 13 13 14 15
5 3 5 5 5 4 2 8 10 9 7 6 3 6 6 6 8 13 16 14 14 12 13 11 10 10 9 9 10 11 13 14 13 13 12 12 12 13 13 11 10 13 13 12 11 11 14 13 12
5 4 6 7 6 5 6 7 8 7 5 5 4 5 8 9 9 14 15 13 13 14 10 12 8 7 8 8 8 8 11 12 12 12 12 12 12 11 12 10 6 10 12 10 7 11 12 12 12
9 7 7 5 9 7 7 7 8 7 6 5 3 5 7 11 11 14 15 13 12 13 10 10 10 9 7 7 7 8 9 12 10 11 11 10 10 10 10 8 7 9 11 11 10 9 11 11 11
5 6 4 6 8 5 9 9 1 6 6 4 3 4 9 15 13 14 13 12 11 10 9 7 10 9 9 8 7 7 7 10 11 10 10 10 9 9 8 7 8 12 11 11 11 10 11 11 9
3 7 8 8 7 9 12 8 3 3 6 2 3 6 10 17 17 15 13 12 11 9 9 6 7 9 9 9 8 7 8 8 9 8 7 9 6 7 7 8 7 8 7 11 8 7 7 9 7
7 9 8 4 3 12 14 8 10 7 8 6 7 7 13 17 18 18 16 14 14 13 10 8 6 7 8 7 9 7 8 7 6 6 7 4 5 5 7 8 7 6 5 9 5 2 2 6 5
5 9 6 5 4 9 13 7 7 6 8 8 11 12 14 16 17 17 17 15 15 15 12 11 8 7 7 6 7 5 5 4 4 6 5 4 4 4 4 5 4 5 4 4 5 4 4 1 3
9 2 2 5 3 7 13 11 7 8 7 5 4 14 15 16 16 16 17 16 16 15 14 12 11 9 8 5 6 6 5 5 4 6 6 5 4 4 4 4 4 3 4 2 2 2 1 2 3
8 7 4 5 5 6 6 8 3 8 9 7 6 10 14 14 15 14 14 14 14 15 14 14 12 12 10 8 6 6 6 5 6 6 6 5 4 4 4 4 4 4 4 4 4 4 4 5 5
6 9 9 5 6 3 5 4 2 3 5 7 7 10 12 13 14 13 14 14 14 14 14 14 13 13 12 10 9 6 5 7 6 6 6 7 5 5 5 5 5 4 4 4 4 4 4 4 4
14 9 6 6 5 3 3 5 9 9 4 8 10 10 11 12 14 15 14 14 14 13 13 12 11 12 12 12 10 5 5 6 6 6 7 8 7 6 6 5 5 5 5 5 4 4 4 5 5
9 9 8 7 5 3 4 7 9 5 7 8 9 11 10 11 13 13 13 13 13 13 14 13 10 10 12 11 7 5 5 4 5 5 6 8 8 8 7 5 5 5 4 4 5 5 5 5 6
7 11 15 7 5 2 7 6 9 3 4 9 9 10 10 10 11 12 13 13 14 14 14 14 15 14 12 11 7 7 7 6 5 4 4 8 9 9 8 6 6 4 4 5 5 5 5 5 6
14 15 8 12 9 5 8 11 6 6 3 5 7 8 8 9 10 11 12 12 12 13 14 14 12 14 13 7 7 5 5 5 5 5 5 7 8 9 8 7 7 6 6 4 4 6 3 4 5
13 17 12 7 3 6 13 11 10 6 5 7 8 8 7 7 3 2 5 8 12 13 14 15 15 14 11 8 6 5 6 5 5 5 7 7 7 7 8 7 5 3 5 7 5 5 8 6 6
11 15 11 4 2 4 5 12 11 10 10 8 9 7 6 4 6 5 5 7 10 12 14 14 14 15 12 10 7 4 5 5 5 5 7 8 7 7 7 8 6 5 5 7 7 6 3 5 5
10 14 12 3 7 2 4 10 11 5 5 4 5 5 5 4 3 2 3 4 5 9 11 13 14 14 13 13 8 5 2 1 4 5 5 6 8 6 7 8 7 8 7 7 8 7 9 7 4
9 3 11 11 11 5 3 4 9 9 10 6 6 5 4 3 4 3 2 3 2 2 5 9 11 12 11 12 9 8 6 7 5 5 5 5 8 9 8 9 9 8 6 7 8 7 8 7 8
6 8 10 8 4 1 6 6 5 7 8 9 7 6 5 4 3 5 5 4 4 2 3 6 8 9 10 10 10 6 5 4 5 2 5 6 6 8 8 8 8 8 7 7 8 6 7 8 7
16 13 10 6 3 5 6 7 7 7 11 10 6 6 5 5 6 7 7 7 8 7 7 6 7 7 6 7 8 8 3 2 1 1 2 3 1 2 4 5 4 3 4 6 6 7 9 8 8
12 16 5 6 6 4 2 4 7 5 4 10 10 7 7 6 7 8 9 9 10 10 10 10 10 8 6 5 5 5 4 4 4 4 3 3 2 3 4 4 5 5 6 5 5 6 7 7 7
15 17 6 7 6 7 1 9 4 8 6 4 8 8 8 8 8 9 10 10 11 10 11 12 12 12 10 9 7 5 5 4 3 2 1 1 3 4 6 6 6 7 7 7 6 6 6 6 6
13 10 4 7 2 2 7 5 7 7 7 9 11 11 11 10 9 10 10 10 11 11 12 11 12 12 11 10 9 9 8 8 7 6 5 4 5 5 5 5 6 7 7 7 8 6 8 8 8
6 11 5 3 6 5 6 5 5 11 14 13 14 14 14 11 10 10 9 10 10 10 11 12 12 12 11 11 10 9 9 9 8 8 8 7 6 7 7 7 8 7 7 7 7 6 7 8 7
5 6 5 3 3 4 4 5 2 11 17 18 16 15 15 15 12 10 9 9 10 9 10 11 11 11 11 10 10 9 9 9 8 8 8 8 7 8 8 8 8 8 8 7 7 8 9 9 10
4 8 12 7 5 1 2 3 1 4 15 15 16 16 14 13 12 11 11 10 10 10 10 10 10 10 9 9 9 9 9 9 8 8 8 7 7 7 7 7 7 7 8 8 8 9 9 10 10
Wind_Direction
260 251 277 265 235 250 120 141 98 129 134 60 58 324 32 26 8 31 136 125 131 131 122 136 124 118 116 115 110 95 132 116 106 101 94 97 94 87 87 77 89 81 77 77 78 81 76 74 78
278 275 238 262 248 192 133 119 164 95 79 110 117 194 195 78 63 115 130 144 137 130 139 127 113 119 125 117 109 95 123 116 109 102 95 101 98 86 81 78 91 85 82 79 82 82 78 76 75
263 269 260 255 281 107 133 169 112 110 113 158 140 329 7 74 90 132 113 139 134 135 118 115 123 131 130 122 101 88 127 112 109 103 102 107 102 88 80 67 86 87 78 85 91 88 89 74 76
249 203 208 245 163 65 67 159 129 134 136 195 313 104 105 26 126 104 142 142 138 130 113 126 126 127 124 105 102 97 121 110 105 100 106 107 102 89 84 64 71 83 82 91 96 96 92 78 84
231 249 222 230 134 106 132 131 159 164 147 156 194 109 81 102 92 128 147 149 140 136 119 134 122 124 127 117 114 107 118 113 108 109 108 104 101 92 88 81 72 93 100 106 106 92 96 92 86
207 285 222 196 151 140 134 151 170 161 153 121 198 131 94 116 136 146 150 154 144 134 134 131 122 122 124 117 106 102 114 112 109 111 111 109 107 100 98 95 83 92 107 116 107 103 103 99 90
244 223 228 208 147 165 145 166 173 162 159 155 81 135 106 141 136 154 155 155 147 133 135 141 145 134 105 93 94 90 102 110 110 113 108 98 90 85 91 82 70 96 95 83 82 95 101 96 91
257 243 191 222 173 136 141 164 170 175 129 83 331 149 151 139 141 155 159 156 154 147 124 157 145 156 147 141 104 95 84 103 104 103 100 97 96 93 97 107 51 88 86 77 69 69 85 94 95
285 224 205 178 194 137 157 162 175 69 134 179 129 50 104 132 147 157 161 163 161 154 149 161 169 161 153 146 127 120 100 98 109 115 123 160 123 133 154 74 70 80 83 95 80 82 101 109 105
227 224 206 152 141 156 168 185 154 176 151 166 160 108 128 148 156 163 172 173 174 172 176 159 176 178 160 150 153 160 144 163 167 151 173 134 133 94 98 91 77 71 93 80 83 58 144 214 165
196 211 113 144 116 149 158 182 158 194 184 164 180 153 160 166 168 174 180 182 183 180 176 179 181 179 179 171 168 170 168 169 165 163 162 142 122 146 158 135 150 141 204 169 186 177 223 339 316
184 92 99 126 140 170 164 141 184 200 89 52 88 153 166 180 185 186 188 186 186 188 184 189 178 187 185 189 192 176 182 177 181 177 176 165 172 171 166 171 174 178 193 153 195 199 231 239 264
209 138 103 112 152 183 127 167 103 196 137 116 125 159 176 186 190 198 199 199 193 196 191 186 188 189 195 181 207 199 192 190 191 181 187 191 183 183 186 182 188 193 188 193 200 209 205 219 231
129 137 126 139 141 136 197 152 220 153 149 178 163 176 187 195 194 193 201 204 202 205 202 190 193 200 191 197 196 204 218 184 201 197 193 205 201 194 193 193 204 206 205 208 221 223 229 236 240
143 124 145 163 166 127 274 209 215 127 150 186 198 184 186 197 197 202 201 206 206 205 208 199 193 210 207 208 203 207 204 227 209 208 206 202 215 208 209 205 208 214 209 221 224 233 251 263 252
155 173 176 156 192 129 245 227 149 141 199 209 191 197 188 199 205 204 204 207 207 208 206 201 189 199 211 206 202 197 198 219 208 234 215 213 216 226 214 227 221 213 212 225 231 232 239 252 254
194 193 208 152 200 145 225 261 109 142 170 214 198 204 192 203 208 211 210 209 208 205 204 203 195 193 205 206 203 201 206 202 209 207 231 234 221 224 227 224 234 233 234 231 241 242 248 245 254
180 217 197 203 176 204 206 251 140 159 175 214 201 198 198 204 210 210 212 213 211 212 211 206 202 203 190 202 205 199 202 211 206 206 208 225 235 231 231 235 235 210 217 223 217 236 229 250 260
186 206 200 187 123 207 224 245 246 213 208 221 229 223 205 212 163 173 213 219 220 216 212 214 206 202 185 181 184 197 204 202 207 211 210 223 230 229 251 239 254 224 202 227 216 219 240 256 245
176 199 194 115 113 224 207 256 245 235 229 235 240 240 234 213 213 181 223 216 216 221 219 217 215 207 205 183 184 198 190 207 214 213 221 222 224 215 221 252 235 233 235 246 234 211 232 247 229
189 199 176 204 148 221 290 259 223 180 226 218 227 249 256 225 211 186 186 209 225 223 222 217 215 214 207 214 164 175 83 142 185 210 215 223 225 215 218 226 226 236 236 241 237 229 223 239 222
182 207 141 143 175 207 217 250 180 174 183 192 187 180 168 147 140 110 105 107 102 256 242 222 218 211 210 203 198 165 202 218 212 209 197 207 210 226 228 236 235 230 228 232 239 234 229 232 248
110 153 141 150 160 226 189 245 159 159 197 178 171 137 147 113 100 91 72 58 64 81 159 203 203 203 198 205 213 178 213 237 243 218 185 200 203 218 234 235 233 236 237 238 234 227 222 224 238
137 124 108 107 146 239 206 240 234 179 204 160 150 138 131 108 99 90 79 77 72 81 101 132 152 160 176 204 208 198 157 216 227 294 286 287 224 196 212 238 258 273 254 243 237 239 237 231 234
164 169 153 186 199 237 66 221 242 124 147 156 157 143 125 129 110 99 93 82 77 77 86 92 90 90 90 95 83 63 78 68 51 39 33 15 360 315 288 314 294 275 269 264 252 253 256 248 240
195 190 171 187 193 183 122 225 218 109 114 146 133 130 126 123 116 105 98 96 87 82 84 90 98 105 110 111 105 99 110 100 110 100 66 353 352 1 354 333 322 313 310 306 288 273 271 260 261
173 207 57 106 60 199 191 231 187 160 163 164 146 148 141 134 126 116 101 93 90 83 81 86 89 87 86 88 87 80 75 71 74 65 51 38 28 11 345 344 336 332 327 321 312 303 301 295 276
216 145 149 225 153 219 186 248 224 196 182 169 161 157 147 134 132 124 115 105 96 91 91 88 84 83 82 79 74 68 65 62 63 59 52 40 30 18 6 2 353 346 340 333 325 308 298 296 288
153 183 219 228 235 207 170 234 93 191 182 172 169 160 154 151 146 135 122 110 103 98 91 88 83 82 80 77 76 74 66 58 55 52 44 29 22 12 7 360 351 345 338 334 324 312 304 298 295
287 217 194 204 177 356 25 261 357 237 171 169 159 156 155 151 146 139 135 126 114 103 92 86 82 78 76 78 79 69 66 57 46 41 32 20 15 8 358 348 341 335 330 330 322 310 307 301 297